Regional Weather Roundup
Issued by NWS

Home | Current Version | Previous Version | Graphics & Text | Print | Product List | Glossary On
Versions: 1 2 3 4 5 6 7 8 9 10 11 12 13 14 15 16 17 18 19 20 21 22 23 24 25 26 27 28 29 30 31 32 33 34 35 36 37 38 39 40 41 42 43 44 45 46 47 48 49 50
174
ASUS43 KBIS 240210
RWRND

NORTH DAKOTA REGIONAL WEATHER ROUNDUP
NATIONAL WEATHER SERVICE BISMARCK ND
900 PM CDT SUN APR 23 2017

NOTE: "FAIR" INDICATES FEW OR NO CLOUDS BELOW 12,000 FEET WITH NO
SIGNIFICANT WEATHER AND/OR OBSTRUCTIONS TO VISIBILITY.


NDZ001>003-009>011-017-240300-
NORTHWEST NORTH DAKOTA

CITY           SKY/WX    TMP DP  RH WIND       PRES   REMARKS
WILLISTON      CLOUDY    32  27  81 E16       29.86S
MINOT          CLOUDY    31  28  89 E15       29.92F
MINOT AFB      CLOUDY    31  27  85 E18       29.92F WCI  19
$$

NDZ018>021-031>035-040>046-240300-
SOUTHWEST NORTH DAKOTA

CITY           SKY/WX    TMP DP  RH WIND       PRES   REMARKS
BISMARCK       CLOUDY    34  32  92 E18       29.85F
DICKINSON      CLOUDY    34  31  88 E16       29.76S
GARRISON         N/A     28  26  92 E17G26    29.87F WCI  16
HETTINGER ARPT CLOUDY    39  34  82 E22       29.74F
$$

NDZ004>008-012>016-024-026-027-054-240300-
NORTHEAST NORTH DAKOTA

CITY           SKY/WX    TMP DP  RH WIND       PRES   REMARKS
GRAND FORKS    CLOUDY    33  30  88 E17       30.01F
GRND FRKS AFB  MIX PCPN  32  28  86 E14       30.01F
DEVILS LAKE    CLOUDY    29  26  89 E14G24    29.97S WCI  18
$$

NDZ022-023-025-028>030-036>039-047>053-240300-
SOUTHEAST NORTH DAKOTA

CITY           SKY/WX    TMP DP  RH WIND       PRES   REMARKS
FARGO          PTCLDY    37  32  82 NE17      29.91F
JAMESTOWN      CLOUDY    32  29  88 NE22G29   29.87F WCI  19
$$





USA.gov is the U.S. government's official web portal to all federal, state and local government web resources and services.